LEDSAT (49069 NORAD) Tracking and Keplerian Element Data

This shows tracking and keplerian element data for the satellite.

Feedback or suggestion? Click here.




ElementValue
Catalog49069
NameLEDSAT
Epoch Orbit17440
Epoch Day286.74809171
Epoch Year2024
RAAN357.5338
Inclination97.4252
Eccentricity0.0016163
Argument of Perigee224.4203
Mean Anonmoly135.5743
Mean Motion15.32286798
Decay Rate0.00043873
L11 49069U 21073D 24286.74809171 .00043873 00000+0 13979-2 0 9995
L22 49069 97.4252 357.5338 0016163 224.4203 135.5743 15.32286798174402



Live tracking and technical data element details for LEDSAT (NORAD 49069). LEDSAT can be tracked NOW for your location showing map with azimuth and elevation plus other details from your city location.







IsCatalogInMostPopularTable: catalog: 49069, numindb: 120
Update: records affected: 1



GetName: 49069 LEDSAT

Hit Count: updated at: Fri, 24 Jan 2025 23:40:04 GMT